Location: Malanoce
(44.2500°N, 7.4667°E)
Time: 22:44:49
(UTC+00:00)

NOAA 6 - Visible Passes

Search period start: 15 February 2026 00:00
Search period end: 25 February 2026 00:00
Orbit: 767 x 780 km, 98.6° (Epoch: 15 February)

Date Brightness Start Highest point End Pass type
(mag) Time Alt. Az. Time Alt. Az. Time Alt. Az.
15 Feb 4.3 17:44:29 10° SE 17:49:23 47° ENE 17:54:20 10° N visible
15 Feb 6.3 19:24:43 10° SW 19:28:45 23° W 19:32:49 10° NW visible
16 Feb 7.3 05:54:44 10° ENE 05:57:19 14° E 05:59:54 10° ESE visible
16 Feb 5.1 18:49:18 10° S 18:54:12 46° W 18:59:12 10° NNW visible
17 Feb 4.0 18:14:42 10° SSE 18:19:51 87° ENE 18:25:03 10° NNW visible
17 Feb 7.1 19:57:46 10° WSW 19:59:41 12° W 20:01:35 10° WNW visible
18 Feb 4.4 17:40:49 10° SE 17:45:39 44° ENE 17:50:33 10° N visible
18 Feb 6.2 19:20:47 10° SSW 19:24:59 25° W 19:29:12 10° NW visible
19 Feb 7.4 05:51:20 10° ENE 05:53:31 13° E 05:55:42 10° ESE visible
19 Feb 4.9 18:45:28 10° S 18:50:27 50° W 18:55:29 10° NNW visible
20 Feb 4.0 18:10:58 10° SSE 18:16:06 81° ENE 18:21:18 10° NNW visible
20 Feb 7.0 19:53:30 10° WSW 19:55:52 13° W 19:58:15 10° WNW visible
21 Feb 4.5 17:37:09 10° SE 17:41:56 41° ENE 17:46:45 10° N visible
21 Feb 6.1 19:16:52 10° SSW 19:21:11 27° W 19:25:33 10° NW visible
22 Feb 7.6 05:48:03 10° ENE 05:49:43 11° E 05:51:22 10° ESE visible
22 Feb 4.8 18:41:39 10° S 18:46:41 54° W 18:51:46 10° NNW visible
23 Feb 4.0 18:07:14 10° SSE 18:12:21 75° ENE 18:17:32 10° N visible
23 Feb 7.0 19:49:20 10° WSW 19:52:04 14° W 19:54:48 10° WNW visible
24 Feb 4.6 17:33:30 10° SE 17:38:12 38° ENE 17:42:57 10° N visible
24 Feb 6.0 19:12:58 10° SSW 19:17:24 29° W 19:21:53 10° NW visible
